Regional Weather Roundup
Issued by NWS

Home | Current Version | Previous Version | Graphics & Text | Print | Product List | Glossary On
Versions: 1 2 3 4 5 6 7 8 9 10 11 12 13 14 15 16 17 18 19 20 21 22 23 24 25 26 27 28 29 30 31 32 33 34 35 36 37 38 39 40 41 42 43 44 45 46 47 48 49 50
000
ASUS43 KLMK 100402
RWRKY
KENTUCKY REGIONAL WEATHER ROUNDUP
NATIONAL WEATHER SERVICE LOUISVILLE KY
1200 AM EDT THU JUL 10 2014

NOTE "FAIR" INDICATES FEW OR NO CLOUDS BELOW 12,000 FEET
WITH NO SIGNIFICANT WEATHER AND/OR OBSTRUCTIONS TO VISIBILITY.

KYZ001>023-026-027-061>063-070>075-100500-
WESTERN AND SOUTH CENTRAL KENTUCKY

CITY           SKY/WX    TMP DP  RH WIND       PRES   REMARKS
PADUCAH        CLEAR     69  66  90 CALM      30.01R
HENDERSON      MOCLDY    72  66  83 CALM      30.01R
OWENSBORO      CLEAR     72  65  78 CALM      30.02R
HOPKINSVILLE   CLEAR     70  63  79 N5        30.03R
BOWLING GREEN  CLEAR     69  61  75 CALM      30.03R
GLASGOW        NOT AVBL
$$

KYZ024-025-028>034-038-045-046-053-100500-
NORTH CENTRAL KENTUCKY

CITY           SKY/WX    TMP DP  RH WIND       PRES   REMARKS
LOUISVILLE/SDF MOCLDY    77  61  57 N6        30.02R
LOUISVILLE/LOU CLEAR     75  61  61 CALM      30.02S
FORT KNOX      CLEAR     67  65  93 CALM      30.02S
$$

KYZ035>037-039>044-047>052-055>060-089>105-100500-
NORTHEAST KENTUCKY

CITY           SKY/WX    TMP DP  RH WIND       PRES   REMARKS
LEXINGTON      CLEAR     70  59  68 CALM      30.04R
COVINGTON      PTCLDY    69  60  73 NW5       30.03R
FRANKFORT      PTCLDY    69  61  75 CALM      30.02S
$$

KYZ054-064>069-076>088-106>120-100500-
SOUTHEAST KENTUCKY

CITY           SKY/WX    TMP DP  RH WIND       PRES   REMARKS
JACKSON        CLEAR     73  59  61 CALM      30.06R
LONDON         CLEAR     69  62  78 CALM      30.06R
SOMERSET       CLEAR     66  63  88 CALM      30.06R
MIDDLESBORO    CLEAR     69  67  92 CALM      30.07R
MONTICELLO     CLEAR     64  63  97 CALM      30.06S
$$



USA.gov is the U.S. government's official web portal to all federal, state and local government web resources and services.